Regional Weather Roundup
Issued by NWS

Home | Current Version | Previous Version | Graphics & Text | Print | Product List | Glossary On
Versions: 1 2 3 4 5 6 7 8 9 10 11 12 13 14 15 16 17 18 19 20 21 22 23 24 25 26 27 28 29 30 31 32 33 34 35 36 37 38 39 40 41 42 43 44 45 46 47 48 49 50
000
ASUS43 KMPX 142101
RWRMN
WEATHER ROUNDUP FOR MINNESOTA
NATIONAL WEATHER SERVICE TWIN CITIES/CHANHASSEN MN
400 PM CDT SUN SEP 14 2014


NOTE: "FAIR" INDICATES FEW OR NO CLOUDS BELOW 12,000 FEET WITH NO
SIGNIFICANT WEATHER AND/OR OBSTRUCTIONS TO VISIBILITY. N/A MEANS
CURRENT SKY AND/OR WEATHER CONDITIONS ARE NOT AVAILABLE.

MNZ060>063-068>070-142200-
   Twin Cities Metro

CITY           SKY/WX    TMP DP  RH WIND       PRES   REMARKS
TWIN CITIES    PTSUNNY   64  35  34 W14G21    30.10F
ST PAUL        PTSUNNY   63  37  38 W14G23    30.10F
CRYSTAL        PTSUNNY   64  38  38 W15G22    30.09F
LAKEVILLE      MOSUNNY   63  39  42 W7G17     30.10F
EDEN PRAIRIE   PTSUNNY   66  39  37 W13       30.09F
SOUTH ST PAUL  PTSUNNY   64  35  33 W8G16     30.10S
LAKE ELMO      FAIR      63  41  45 W9        30.10F
$$
MNZ001>005-007-008-013>017-022>024-027-028-142200-
   Northwest Minnesota

CITY           SKY/WX    TMP DP  RH WIND       PRES   REMARKS
BEMIDJI        PTSUNNY   55  43  64 W14       30.07S
HALLOCK        SUNNY     55  43  62 W14       30.08S
ROSEAU         CLOUDY    50  45  81 W7        30.06R
WARROAD        LGT RAIN  54  46  76 W6        30.05R
THIEF RVR FALL CLOUDY    55  43  62 W8        30.08F
CROOKSTON      CLOUDY    55  43  62 NW7       30.10F
FOSSTON        CLOUDY    52  43  71 W3        30.10F
DETROIT LAKES  MOSUNNY   54  43  66 NW3       30.12S
MOORHEAD       PTSUNNY   57  45  62 N8        30.11S
PARK RAPIDS    CLOUDY    53  43  68 W12       30.09F
MAHNOMEN       MOCLDY    53  41  65 NW13      30.11S
$$
MNZ006-009>011-018-025>026-142200-
   North Central Minnesota

CITY           SKY/WX    TMP DP  RH WIND       PRES   REMARKS
BAUDETTE       MOSUNNY   55  42  61 NW5       30.03S
FLAG ISLAND    PTSUNNY   52  43  71 NW17      30.02R
INTL FALLS     PTSUNNY   56  44  64 NW8       30.01S
WASKISH        PTSUNNY   59  46  63 CALM      30.04F
BIG FORK       MOSUNNY   57  41  54 W7        30.04S
LONGVILLE      PTSUNNY   54  43  66 W6        30.08S
GRAND RAPIDS   PTSUNNY   54  41  62 W13       30.07F
CRANE LAKE     PTSUNNY   52  46  82 NW3       30.02S
ORR            PTSUNNY   52  45  76 W3        30.00S
COOK           MOSUNNY   52  46  82 W8        30.03R
WALKER         CLOUDY    53  42  67 W8        30.08F
$$
MNZ012-019>021-037-142200-
   Northeast Minnesota

CITY           SKY/WX    TMP DP  RH WIND       PRES   REMARKS
DULUTH         PTSUNNY   57  41  55 NW9       30.04S
ELY            MOSUNNY   54  43  66 W13G18    30.00R
HIBBING        PTSUNNY   57  42  57 W9G17     30.04F
EVELETH        PTSUNNY   54  37  54 W15G23    30.04S
DULUTH HARBOR  PTSUNNY   61  45  55 W13       30.05S
TWO HARBORS    MOSUNNY   57  41  54 W7G21     30.01F
SILVER BAY     SUNNY     55  46  71 SW7       30.00S
GRAND MARAIS     N/A     54  47  77 W5        29.96S
G MARAIS ARPRT PTSUNNY   52  39  62 SW9G20    29.97S
$$
MNZ029>031-032-039>041-046>048-054>057-064-142200-
   West Central Minnesota

CITY           SKY/WX    TMP DP  RH WIND       PRES   REMARKS
FERGUS FALLS   CLOUDY    57  39  51 W3        30.11F
WHEATON        PTSUNNY   57  41  54 SW5       30.14F
MORRIS         CLOUDY    61  43  51 MISG      30.11S
ALEXANDRIA     CLOUDY    57  42  57 NW13      30.13F
ELBOW LAKE     CLOUDY    56  42  57 W7        30.11F
WADENA         CLOUDY    54  45  71 NW8       30.10F
GLENWOOD       CLOUDY    55  45  67 NW7       30.12S
APPLETON       PTSUNNY   61  41  48 W7        30.12S
BENSON         CLOUDY    59  43  55 NW6       30.12F
ORTONVILLE     PTSUNNY   61  39  44 NW7       30.12F
MADISON        MOSUNNY   63  43  48 NW6       30.13R
WILLMAR        FAIR      59  43  55 W10       30.13F
$$
MNZ033>034-036-042>043-049>051-058-059-142200-
   Central Minnesota

CITY           SKY/WX    TMP DP  RH WIND       PRES   REMARKS
ST CLOUD       PTSUNNY   62  41  46 W14       30.09F
SAUK CENTRE    MOCLDY    56  42  59 NW10      30.11S
PAYNESVILLE    PTSUNNY   56  40  55 SW10      30.12S
AITKIN         MOSUNNY   59  45  58 SW7       30.07F
PINE RIVER     CLOUDY    54  45  71 W8        30.12S
BRAINERD       CLOUDY    54  42  64 W9        30.10S
STAPLES        CLOUDY    54  41  62 NW9       30.11S
LONG PRAIRIE   CLOUDY    54  41  62 W9        30.11F
LITTLE FALLS   CLOUDY    57  41  54 W7        30.09F
LITCHFIELD       N/A     61  43  51 W8        30.12S
BUFFALO        PTSUNNY   62  42  47 W12       30.12S
MAPLE LAKE     PTSUNNY   61  45  56 W9        30.11F
$$
MNZ037-044-045-052-053-142200-
   East Central Minnesota

CITY           SKY/WX    TMP DP  RH WIND       PRES   REMARKS
PRINCETON      PTSUNNY   63  43  48 W8G16     30.09F
MORA           MOSUNNY   57  41  54 W8        30.10S
CAMBRIDGE      PTSUNNY   63  45  51 W10G16    30.07S
RUSH CITY      MOSUNNY   62  43  49 W12G17    30.08F
MOOSE LAKE     CLOUDY    55  41  58 W6        30.06S
HINCKLEY       FAIR      61  43  51 W10       30.08S
CLOQUET        PTSUNNY   57  41  54 NW10G18   30.05S
MCGREGOR       PTSUNNY   57  43  58 W9        30.07F
$$
MNZ071>073-080-081-089-090-097-098-142200-
   Southwest Minnesota

CITY           SKY/WX    TMP DP  RH WIND       PRES   REMARKS
MONTEVIDEO     MOSUNNY   63  45  51 NW3       30.14S
GRANITE FALLS  PTSUNNY   59  41  51 W7        30.14S
CANBY          CLOUDY    60  38  44 W8        30.14S
MARSHALL       PTSUNNY   59  37  44 NW9       30.13R
REDWOOD FALLS  PTSUNNY   62  39  42 W9        30.12S
OLIVIA         PTSUNNY   61  39  44 W7        30.11F
PIPESTONE      PTSUNNY   63  37  39 N9        30.12S
WINDOM         MOSUNNY   64  39  39 W3        30.11F
WORTHINGTON    CLOUDY    64  39  39 W3        30.12S
JACKSON        CLOUDY    66  43  42 CALM      30.11F
TRACY          PTSUNNY   62  42  48 CALM      30.13R
SLAYTON        CLOUDY    63  37  39 CALM      30.13S
$$
MNZ065>067-074>077-082>085-091>093-142200-
   South Central Minnesota

CITY           SKY/WX    TMP DP  RH WIND       PRES   REMARKS
MANKATO        PTSUNNY   64  37  36 NW9G16    30.11F
NEW ULM        PTSUNNY   63  39  42 W8        30.11F
ST JAMES       PTSUNNY   66  41  39 W7        30.12S
FAIRMONT       PTSUNNY   66  45  45 W5        30.11F
GLENCOE        CLOUDY    63  32  30 W9G16     30.10F
FARIBAULT      MOSUNNY   70  34  26 W10       30.11F
OWATONNA       SUNNY     66  43  42 W3        30.10F
WASECA         MOSUNNY   64  36  34 W6        30.12F
ALBERT LEA     MOSUNNY   64  48  55 W5        30.11F
$$
MNZ078>079-086>088-094>096-142200-
   Southeast Minnesota

CITY           SKY/WX    TMP DP  RH WIND       PRES   REMARKS
ROCHESTER      PTSUNNY   67  47  48 W13G18    30.11F
RED WING       MOSUNNY   68  37  32 W10       30.08F
STANTON        MOSUNNY   66  39  38 W10       30.09F
DODGE CENTER   SUNNY     66  45  45 W7        30.11F
WINONA         MOSUNNY   70  48  46 W9G20     30.09S
AUSTIN         MOSUNNY   64  48  55 W13       30.11F
PRESTON        MOSUNNY   66  54  66 W14       30.12S
$$
ABBREVIATIONS USED IN REMARKS
   TC - TEMPERATURES IN CELSIUS
  WCI - WIND CHILL INDEX
   HX - HEAT INDEX
  VSB - VISIBILITY
$$



USA.gov is the U.S. government's official web portal to all federal, state and local government web resources and services.